Location: Pinon Hills
(34.4429°N, 117.6403°W)
Time: 23:23:36
(UTC-07:00)

Uosat F - Visible Passes

Search period start: 21 October 2014 00:00
Search period end: 31 October 2014 00:00
Orbit: 752 x 761 km, 98.7° (Epoch: 21 October)

Date Brightness Start Highest point End Pass type
(mag) Time Alt. Az. Time Alt. Az. Time Alt. Az.
21 Oct 11.8 05:00:07 10° NNE 05:05:04 54° E 05:09:59 10° S visible
22 Oct 13.4 04:21:58 10° NE 04:25:45 21° E 04:29:30 10° SE visible
22 Oct 11.6 05:59:58 10° N 06:04:35 37° WNW 06:09:10 10° SW visible
23 Oct 11.0 05:20:30 10° NNE 05:25:35 87° ESE 05:30:37 10° SSW visible
24 Oct 12.6 04:41:48 10° NNE 04:46:22 34° E 04:50:54 10° SSE visible
24 Oct 12.1 06:20:58 10° NNW 06:24:55 23° WNW 06:28:51 10° WSW visible
25 Oct 14.0 04:04:38 10° ENE 04:06:57 13° E 04:09:14 10° ESE visible
25 Oct 11.1 05:41:04 10° N 05:46:02 58° WNW 05:50:57 10° SSW visible
26 Oct 11.7 05:01:58 10° NNE 05:06:55 55° E 05:11:51 10° S visible
27 Oct 13.4 04:23:46 10° NE 04:27:37 22° E 04:31:25 10° SE visible
27 Oct 11.6 06:01:51 10° N 06:06:25 36° WNW 06:10:59 10° SW visible
28 Oct 11.0 05:22:21 10° NNE 05:27:25 90° ESE 05:32:28 10° SSW visible
29 Oct 12.6 04:43:37 10° NNE 04:48:13 35° E 04:52:46 10° SSE visible
29 Oct 12.2 06:22:52 10° NNW 06:26:45 23° WNW 06:30:37 10° WSW visible
30 Oct 14.0 04:06:21 10° ENE 04:08:48 13° E 04:11:13 10° ESE visible
30 Oct 11.1 05:42:56 10° N 05:47:52 56° WNW 05:52:46 10° SSW visible
